[Iaude] MPEC V191: 2023 VO6 [a=0.96,e=0.09,i=8.8,H=28.0]
    mpec at marsden.cfa.harvard.edu 
    mpec at marsden.cfa.harvard.edu
       
    Fri Nov 10 21:53:25 EST 2023
    
    
  
M.P.E.C. 2023-V191                            Issued 2023 November 11, 02:51 UT
     The Minor Planet Electronic Circulars contain information on unusual
         minor planets, routine data on comets and natural satellites,
         and occasional editorial announcements.  They are published
    on behalf of Division F of the International Astronomical Union by the
          Minor Planet Center, Smithsonian Astrophysical Observatory,
                          Cambridge, MA 02138, U.S.A.
			  
             Prepared using the Tamkin Foundation Computer Network
                              MPC at CFA.HARVARD.EDU
            URL https://www.minorplanetcenter.net/    ISSN 1523-6714
                                    2023 VO6                                    
Observations:
     K23V06O* C2023 11 10.36770303 42 48.507+22 09 14.55         19.85wXEV191F52
     K23V06O  C2023 11 10.38279103 42 38.395+22 00 30.98         19.76wXEV191F52
     K23V06O  C2023 11 10.39485303 42 30.217+21 53 30.98         19.74wXEV191F52
     K23V06O KC2023 11 10.58063203 40 47.19 +20 14 06.7          18.9 GVEV191474
     K23V06O KC2023 11 10.58263403 40 45.97 +20 12 58.4          19.6 GVEV191474
     K23V06O KC2023 11 10.58464803 40 44.75 +20 11 48.5          20.1 GVEV191474
     K23V06O KC2023 11 10.58668403 40 43.53 +20 10 38.4          19.3 GVEV191474
     K23V06O 1C2023 11 10.79661 03 39 42.10 +17 59 37.9          20.1 VXEV191033
     K23V06O 1C2023 11 10.79695 03 39 41.92 +17 59 26.3          20.2 VXEV191033
     K23V06O 1C2023 11 10.79729 03 39 41.76 +17 59 15.3          20.2 VXEV191033
     K23V06O 1C2023 11 10.79767 03 39 41.58 +17 59 03.2          20.0 VXEV191033
     K23V06O KC2023 11 10.89895 03 38 52.11 +17 05 17.1          19.2 GVEV191104
     K23V06O KC2023 11 10.90530 03 38 48.61 +17 01 52.6                VEV191104
     K23V06O $C2023 11 10.94088103 38 43.371+16 44 29.39         19.4 GVEV191J04
     K23V06O $C2023 11 10.94192003 38 42.779+16 43 55.87         19.6 GVEV191J04
     K23V06O KC2023 11 11.02309003 37 48.470+15 57 54.32         19.8 GVEV191J95
     K23V06O KC2023 11 11.02528403 37 47.342+15 56 44.12         19.5 GVEV191J95
     K23V06O KC2023 11 11.02750803 37 46.128+15 55 33.24         19.7 GVEV191J95
     K23V06O KC2023 11 11.02968303 37 44.995+15 54 23.76         19.5 GVEV191J95
Observer details:
033 Karl Schwarzschild Observatory, Tautenburg.  Observers S. Melnikov, C.
    Hogner, F. Ludwig, M. Hartmann, B. Stecklum.  Measurer B. Stecklum.
    1.34-m f/3 Schmidt + CCD.
104 San Marcello Pistoiese.  Observers P. Bacci, M. Maestripieri.  Measurer P.
    Bacci.  0.60-m f/4.0 reflector + CCD.
474 Mount John Observatory, Lake Tekapo.  Observers A. C. Gilmore, P. M.
    Kilmartin.  Measurer P. M. Kilmartin.  1.0-m f/7.7 reflector + CCD.
F52 Pan-STARRS 2, Haleakala.  Observers J. Bulger, T. Lowe, P. Minguez, A.
    Schultz, I. Smith.  Measurers K. Chambers, T. de Boer, J. Fairlamb, H.
    Gao, M. Huber, C.-C. Lin, E. Magnier, Y. Ramanjooloo, R. Wainscoat, R.
    Weryk.  1.8-m Ritchey-Chretien + CCD.
J04 ESA Optical Ground Station, Tenerife.  Observers D. Abreu, F. Ocana, M.
    Micheli, L. Conversi.  Measurers F. Ocana, M. Micheli, R. Kresken.
    1.0-m f/4.4 reflector + CCD.
J95 Great Shefford.  Observer P. Birtwhistle.  0.41-m f/6.3 Schmidt-Cassegrain
    + CCD.
Orbital elements:
2023 VO6                                                 Earth MOID = 0.0139 AU
Epoch 2023 Sept. 13.0 TT = JDT 2460200.5                Bell                    
M  55.25766              (2000.0)            P               Q                  
n   1.04290141     Peri.   54.84749     +0.21322118     +0.97044536             
a   0.9630316      Node   227.87929     -0.93862109     +0.17136461             
e   0.0889242      Incl.    8.76412     -0.27115893     +0.16991166             
P   0.95           H   28.08          G   0.15           U   6                  
Residuals in seconds of arc
231110 F52  0.1-  0.3+    231110 033  0.1+  0.6+    231110 J04  0.0   0.3-
231110 F52  0.0   0.4+    231110 033  0.1-  0.1+    231111 J95  0.4-  0.1+
231110 F52  0.3-  0.6-    231110 033  0.1-  0.1+    231111 J95  0.2+  0.0
231110 474  0.1+  0.2-    231110 033  0.1-  0.3+    231111 J95  0.3-  0.0
231110 474  0.0   0.4+    231110 104  0.2+  0.1-    231111 J95  0.1+  0.0
231110 474  0.0   0.1-    231110 104  0.0   0.1-
231110 474  0.1+  0.1-    231110 J04  0.3+  0.2+
Ephemeris:
2023 VO6                 a,e,i = 0.96, 0.09, 9                   q = 0.8774
Date    TT    R. A. (2000) Decl.     Delta      r    Elong.  Phase     V
2023 10 12    14 32 00.1 +53 18 44   0.08189 0.9639    63.0   112.6    26.9
...
2023 10 27    14 01 11.2 +65 54 13   0.04026 0.9867    78.4    99.3    24.7
...
2023 11 04    07 44 26.2 +79 32 12   0.02027 0.9981   107.1    71.8    22.1
...
2023 11 10    03 45 31.2 +25 50 59   0.01605 1.0061   165.8    14.0    19.9
2023 11 11    03 37 58.7 +16 15 30   0.01726 1.0073   171.4     8.5    19.9
2023 11 12    03 32 07.1 +08 06 58   0.01890 1.0086   168.7    11.1    20.2
...
2023 11 18    03 13 41.7 -17 39 08   0.03354 1.0157   143.1    35.8    22.2
...
2023 11 26    03 05 26.9 -27 49 07   0.05704 1.0242   129.4    48.2    23.7
...
2023 12 11    03 04 02.2 -31 39 28   0.1028  1.0366   117.7    57.2    25.3
M. P. C. Staff               (C) Copyright 2023 MPC           M.P.E.C. 2023-V191
    
    
More information about the Iaude
mailing list